www.pogodaiklimat.ru

Погода и климат >> Архив погоды >> Россия >> Ненецкий АО >> Шойна


АРХИВ ПОГОДЫ в Шойне

Время (UTC), дата Ветер
(напр.,м/с)
 
Видим.   Явления Облачность Т
(С)
Тd
(С)
f
(%)
Тe
(С)
Тes
(С)
Комфортность P
(гПа)
Po
(гПа)
Тmin
(С)
Tmax
(С)
R
(мм)
R24
(мм)
S
(см)
09 12.03 С 2 20 км 3/0
[Cc]
-7.1 -8.7 88 -12 -9 997.9 997.3
12 12.03 З 2 20 км 3/1 600 м
[Sc Ci fib]
-5.2 -6.6 90 -10 -9 998.5 997.9
15 12.03 СЗ 2 20 км 3/3 300 м
[St]
-5.8 -6.1 98 -10 -10 999.4 998.8 -4.3 0.0
18 12.03 З 4 20 км 3/3 600 м
[Sc]
-4.4 -5.4 93 -11 -11 999.7 999.1
21 12.03 З 6 20 км 8/8 600 м
[Sc]
-3.8 -5.1 91 -11 -11 999.9 999.2
00 13.03 СЗ 6 20 км 6/6 600 м
[Sc]
-3.3 -5.3 86 -11 -11 999.8 999.2
03 13.03 СЗ 5 20 км 9/9 600 м
[Sc]
-3.0 -3.7 95 -10 -10 1000.7 1000.1 -6.0 76
06 13.03 СЗ 5
{10}
20 км {ливн. осадки} 8/4 600 м
[Cu Sc Ac trans Cc]
-3.0 -3.7 95 -10 -10 1001.9 1001.3
09 13.03 СЗ 4 20 км 8/3 600 м
[Cu med, cong Ac trans Cc]
-2.3 -3.2 94 -8 -8 1003.7 1003.0
12 13.03 СЗ 4 20 км 3/1 600 м
[Sc diur, vesp Ac trans Cc]
-2.9 -3.7 94 -9 -8 1005.3 1004.7
15 13.03 СЗ 4 20 км в посл. час ливневой снег 9/5 300 м
[Cb calv Ac trans]
-2.8 -3.8 93 -9 -9 1007.3 1006.6 -2.2 0.3
18 13.03 СЗ 2 20 км {ливн. осадки} 3/0
[Ac trans]
-5.3 -5.3 100 -10 -10 1008.5 1007.8
21 13.03 Ю 3 2000 м дымка ясно -11.4 -11.6 98 -17 -17 1009.7 1009.0
00 14.03 Ю 3 200 м переохл. туман ?/? -14.9 -15.5 95 -21 -21 1010.4 1009.7
03 14.03 Ю 2 200 м переохл. туман ?/? -14.8 -15.4 95 -20 -20 1010.7 1010.0 -16.6 73
06 14.03 Ю 2 20 км в посл. час туман 8/0
[Cc]
-14.1 -14.6 96 -19 -18 1010.9 1010.2
09 14.03 ЮЗ 6 20 км 6/0
[Cc]
-7.4 -7.4 100 -16 -15 1011.2 1010.5
12 14.03 ЮЗ 6 20 км 6/0
[Ac trans Cc]
-7.2 -8.7 89 -15 -15 1011.3 1010.7
15 14.03 Ю 7 20 км 8/3 600 м
[Sc Ac trans Cc]
-13.3 -13.6 98 -23 -23 1010.6 1009.9 -5.9
18 14.03 Ю 6 20 км 3/0
[Cc]
-15.4 -16.1 94 -25 -25 1010.2 1009.5
21 14.03 Ю 5 20 км 4/0
[Cc]
-16.0 -16.9 93 -25 -25 1009.0 1009.1
00 15.03 ЮЗ 7-10
{10}
20 км позёмок 10/10 300 м
[St]
-6.3 -6.5 98 -15 -15 1009.0 1008.4
03 15.03 Ю 6
{11}
20 км {метель} 10/10 300 м
[St]
-5.8 -6.3 96 -14 -14 1008.6 1007.9 -16.8 73
06 15.03 Ю 8-10
{11}
20 км позёмок 8/3 600 м
[Sc Cc]
-7.4 -7.8 97 -17 -17 1008.0 1007.4
09 15.03 ЮВ 5
{10}
20 км {метель} 3/1 600 м
[Sc Cc]
-9.6 -10.3 95 -17 -16 1007.7 1007.1
12 15.03 Ю 7
{10}
20 км позёмок 3/1 600 м
[Sc Cc]
-8.4 -9.1 95 -17 -17 1006.5 1005.9
15 15.03 Ю 8
{10}
20 км позёмок 10/10 600 м
[Sc]
-4.6 -5.3 95 -13 -13 1005.4 1004.8 -4.6
18 15.03 Ю 8-11
{11}
20 км позёмок 9/9 600 м
[Sc]
-2.9 -4.1 91 -11 -11 1004.6 1004.0
21 15.03 Ю 8
{10}
20 км позёмок 10/10 600 м
[Sc]
-2.8 -3.6 94 -11 -11 1004.0 1003.4
00 16.03 Ю 6
{11}
20 км {метель} 10/10 600 м
[Sc]
-3.6 -3.9 98 -11 -11 1003.5 1002.9
03 16.03 Ю 7 20 км 10/10 600 м
[Sc]
-4.2 -4.5 98 -13 -13 1003.2 1002.6 -4.7 73
06 16.03 Ю 5 4000 м слаб. снег 10/0
[Ac As]
-4.1 -4.2 99 -11 -11 1002.9 1002.3
09 16.03 Ю 6 20 км {снег} 10/6 600 м
[Sc Ac As]
-2.4 -2.7 98 -10 -10 1003.1 1002.5
12 16.03 Ю 8-10
{10}
4000 м снег {метель} 10/10 300 м
[Frnb Ns]
-0.9 -0.9 100 -9 -9 1003.4 1002.8
15 16.03 Ю 8-10
{11}
4000 м снег {метель} 10/10 300 м
[Frnb Ns]
-0.6 -0.6 100 -9 -9 1004.5 1003.8 -0.6 0.6
18 16.03 Ю 8-10
{11}
4000 м снег {метель} 10/10 300 м
[Frnb Ns]
-0.7 -0.7 100 -9 -9 1005.1 1004.5
21 16.03 ЮЗ 8-10
{11}
10 км слаб. снег {метель} 10/8 300 м
[Frnb As op]
-0.4 -0.7 98 -8 -8 1006.2 1005.5
00 17.03 ЮЗ 6
{11}
20 км {снег, метель} 10/10 600 м
[Sc]
-0.6 -0.6 100 -8 -8 1007.3 1006.7
03 17.03 Ю 6 20 км 10/10 600 м
[Sc]
-1.5 -1.5 100 -9 -9 1007.8 1007.2 -1.5 0.3 99
06 17.03 Ю 7 20 км 10/10 600 м
[Sc]
-2.1 -2.1 100 -10 -10 1008.3 1007.7 -2.1
09 17.03 Ю 7 20 км 8/3 600 м
[Sc Ac trans Cs]
-2.6 -2.9 98 -11 -10 1008.9 1008.3
12 17.03 Ю 6 20 км 8/3 600 м
[Sc Ac trans Cc]
-2.4 -2.9 96 -10 -10 1009.3 1008.7
15 17.03 Ю 6 20 км 9/8 600 м
[Sc Ci fib]
-3.8 -4.1 98 -12 -12 1010.0 1009.4 -1.5
18 17.03 Ю 5 20 км 10/10 600 м
[Sc]
-5.0 -5.0 100 -12 -12 1010.3 1009.6
21 17.03 Ю 5 20 км 10/10 600 м
[Sc]
-3.6 -3.6 100 -11 -11 1010.5 1009.9
00 18.03 Ю 5 20 км 10/10 600 м
[Sc]
-2.7 -2.8 99 -10 -10 1010.4 1009.8
03 18.03 ЮЗ 6 н/о н/о -1.8 -1.7 100 -9 -9 1010.9 1010.3 -8.4 78
06 18.03 Ю 5 20 км 10/10 600 м
[Sc]
-2.3 -2.5 99 -9 -9 1011.3 1010.7
09 18.03 Ю 6 20 км в посл. час ливневой снег 10/10 300 м
[Cb calv]
-1.1 -1.3 99 -8 -8 1012.3 811.6
12 18.03 Ю 5 20 км {ливн. осадки} 10/10 600 м
[Sc]
-0.7 -0.7 100 -7 -7 1012.1 1011.5
15 18.03 Ю 6 20 км в посл. час ливневой снег 10/10 300 м
[Cb calv]
-0.8 -0.9 99 -8 -8 1010.8 1010.2 -0.6 0.0
18 18.03 Ю 6 20 км {ливн. осадки} 10/10 300 м
[St]
-0.3 -0.3 100 -7 -7 1009.7 1009.1
21 18.03 Ю 7 4000 м слаб. снег 10/8 300 м
[Frnb As op]
-0.3 -0.5 99 -8 -8 1008.5 1007.9
00 19.03 Ю 8-10
{11}
4000 м слаб. снег {метель} 10/8 300 м
[Frnb As op]
-0.6 -0.6 100 -9 -9 1006.2 1005.5
03 19.03 Ю 7
{10}
4000 м слаб. снег {метель} 10/10 300 м
[Frnb Ns]
-0.5 -0.5 100 -8 -8 1004.0 1003.3 -0.8 0.5 78
06 19.03 Ю 4
{10}
2000 м снег {метель} 10/10 300 м
[Frnb Ns]
-0.5 -0.5 100 -6 -6 1002.6 1002.0

 

Местоположение метеостанции Шойна (Ненецкий АО, Россия): широта 67.88 долгота 44.17 высота над уровнем моря 8 м.

В архиве по умолчанию представлена погода в Шойне за последнюю неделю. Архивные данные за месяц целиком и за предыдущие месяцы, начиная с января 2011 года, Вы можете получить, выбрав интересующий диапазон дат из раскрывающегося списка и нажав кнопку "Ввод!".


*Определитесь, кто Вы:
робот инопланетянин человек

Внимание! Время в таблицах - всемирное. Для получения местного времени необходимо прибавить поправку, которая равна 3 ч.

Смотрите также архив погоды в соседних городах и на ближайших метеорологических станциях:

Погода в Канином Носе (Ненецкий АО, Россия) (93 км)
Погода на Мысе Микулкин (Ненецкий АО, Россия) (105 км)
Погода в Неси (Ненецкий АО, Россия) (144 км)
Погода на Моржовец Острове (Архангельская область, Россия) (148 км)
Погода в Абрамовском маяке (Архангельская область, Россия) (172 км)
Погода в Святом Носе (Мурманская область, Россия) (186 км)
Погода в Индиге (Ненецкий АО, Россия) (191 км)
Погода в Иоканьге (Мурманская область, Россия) (196 км)
Погода в Нижней Пеше (Ненецкий АО, Россия) (199 км)
Погода в Каневке (Мурманская область, Россия) (209 км)

Пояснения к столбцам:

Ветер - указаны скорость ветра в м/с - средняя за 10 мин, порывы в срок и между сроками (в фигурных скобках) и направление, откуда дует ветер: С - северный, СВ - северо-восточный, В - восточный, ЮВ - юго-восточный, Ю - южный, ЮЗ - юго-западный, З - западный, СЗ - северо-западный.
Видимость - горизонтальная дальность видимости в метрах или километрах. При видимости от 1 до 10 км при отсутствии осадков обычно наблюдается дымка, при ухудшении видимости до 1 км и менее - туман. В сухую погоду видимость может ухудшаться дымом, пылью или мглою.
Явления - указаны атмосферные явления, наблюдавшиеся в срок или в последний час перед сроком; фигурными скобками обозначены явления, наблюдавшиеся между сроками (за 1-3 часа до срока); квадратными скобками обозначены град или гололедные отложения с указанием их диаметра в мм.
Облачность - указаны через наклонную черту общая и нижняя облачность в баллах и высота нижней границы облаков в метрах; квадратными скобками обозначены формы облаков: Ci - перистые, Cs - перисто-слоистые, Cc - перисто-кучевые, Ac - высококучевые, As - высокослоистые, Sc - слоисто-кучевые, Ns - слоисто-дождевые, Cu - кучевые, Cb - кучево-дождевые. Подробнее классификацию облаков см. в Атласе облаков (PDF).
T - Температура воздуха - температура, измеренная на высоте 2 м над землей.
Td - Температура точки росы - температура, при понижении до которой содержащийся в воздухе водяной пар достигнет насыщения.
f - Относительная влажность воздуха - влажноcть воздуха, измеренная на высоте 2 м над землей.
Te - Эффективная температура - температура, которую ощущает одетый по сезону человек в тени. Характеристика душности погоды. При расчете учитывается влияние влажности воздуха и скорости ветра на теплоощущения человека.
Tes - Эффективная температура на солнце - температура, которую ощущает человек, с поправкой на солнечный нагрев. Характеристика знойности погоды. Зависит от высоты солнца над горизонтом, облачности и скорости ветра. Ночью, в пасмурную погоду, а также при ветре 12 м/с и более поправка равна нулю.
P - Атмосферное давление - приведенное к уровню моря атмосферное давление.
Po - Атмосферное давление - измеренное на уровне метеостанции атмосферное давление.
Tmin - Минимальная температура - минимум температуры воздуха на высоте 2 м над землей.
Tmax - Максимальная температура - максимум температуры воздуха на высоте 2 м над землей.
R - Количество осадков - Количество выпавших осадков за период времени, мм. При наведении курсора мыши на число - период времени, за который выпало указанное количество осадков.
R24 - Количество осадков - Количество выпавших осадков за 24 часа, мм.
S - Снежный покров - Высота снежного покрова, см. При наведении курсора мыши на число - состояние снежного покрова и степень покрытия местности в баллах.